Location: Presov
(49.0000°N, 21.2500°E)
Time: 06:24:04
(UTC+02:00)

Tiangong - Visible Passes

Search period start: 10 June 2023 00:00
Search period end: 20 June 2023 00:00
Orbit: 386 x 390 km, 41.5° (Epoch: 09 June)

Date Brightness Start Highest point End Pass type
(mag) Time Alt. Az. Time Alt. Az. Time Alt. Az.
10 Jun -0.3 02:15:37 18° SSE 02:15:37 18° SSE 02:17:03 10° SE visible
11 Jun -0.7 02:52:06 20° SSW 02:52:24 20° S 02:54:50 10° SE visible
12 Jun -0.2 03:28:54 11° SW 03:30:09 14° SSW 03:31:49 10° SSE visible
15 Jun 0.0 21:58:05 10° S 21:58:55 12° S 21:58:55 12° S visible
16 Jun -0.3 22:34:40 10° SW 22:36:05 17° SSW 22:36:05 17° SSW visible
17 Jun -0.4 21:36:13 10° SSW 21:38:18 16° SSE 21:40:23 10° SE visible
17 Jun 0.2 23:12:06 10° SW 23:12:40 13° SW 23:12:40 13° SW visible
18 Jun -0.7 22:13:18 10° SW 22:15:47 21° S 22:16:36 19° SSE visible
19 Jun -0.3 22:50:54 10° WSW 22:52:34 18° SSW 22:52:34 18° SSW visible
